User: anonymous   Login
Location: Montr�al
(45.5000°N, 73.5830°W)
Time: 20:16:23
(UTC-04:00)
Language:

Cosmos 2369 - Orbit

View from above orbital plane
View from above orbital plane
View from above satellite
View from above satellite

Ground track
Ground track

The orbit data is extracted from the following two-line orbital elements,

1 26069U 00006A   17175.58312649 +.00000069 +00000-0 +62072-4 0  9994
2 26069 070.9919 343.5711 0012637 223.0072 137.0062 14.13341854160515
Epoch (UTC): 24 June 2017 13:59:42
Eccentricity: 0.0012637
inclination: 70.9919°
perigee height: 839 km
apogee height: 857 km
right ascension of ascending node: 343.5711°
argument of perigee: 223.0072°
revolutions per day: 14.13341854
mean anomaly at epoch: 137.0062°
orbit number at epoch: 16051

The dashed part of the orbit path shows where the satellite is in the earth's shadow,  

DLR